Regional Weather Roundup
Issued by NWS

Home | Current Version | Previous Version | Text Only | Print | Product List | Glossary Off
Versions: 1 2 3 4 5 6 7 8 9 10 11 12 13 14 15 16 17 18 19 20 21 22 23 24 25 26 27 28 29 30 31 32 33 34 35 36 37 38 39 40 41 42 43 44 45 46 47 48 49 50

000
ASUS43 KDTX 171810
RWRMI
MICHIGAN HOURLY REGIONAL WEATHER ROUNDUP
NATIONAL WEATHER SERVICE DETROIT/PONTIAC MI
100 PM EST SUN DEC 17 2017

NOTE: "FAIR" INDICATES FEW OR NO CLOUDS BELOW 12,000 FEET WITH NO
SIGNIFICANT WEATHER AND/OR OBSTRUCTION TO VISIBILITY.

MIZ047>049-052>055-059>063-066>070-074>076-081>083-171900-
SOUTHEAST LOWER MICHIGAN

CITY           SKY/WX    TMP DP  RH WIND       PRES   REMARKS
ADRIAN         CLOUDY    32  29  88 E7        30.11F FOG     WCI  26
6HR MIN TEMP:  25; 6HR MAX TEMP:  32;

ALMA           CLOUDY    27  24  87 E10       30.12F WCI  18
6HR MIN TEMP:  24; 6HR MAX TEMP:  27;

ANN ARBOR      CLOUDY    31  28  89 NE7       30.10F FOG     WCI  24
BAD AXE        CLOUDY    27  19  72 SE6       30.17F WCI  21
6HR MIN TEMP:  24; 6HR MAX TEMP:  27;

CARO           CLOUDY    28  22  77 E7        30.15F WCI  21
DETROIT CITY   CLOUDY    31  28  89 E10       30.14F WCI  22
6HR MIN TEMP:  27; 6HR MAX TEMP:  31;

DETROIT        CLOUDY    34  29  82 E7        30.13F WCI  28
6HR MIN TEMP:  30; 6HR MAX TEMP:  34;

FLINT          CLOUDY    28  23  81 E7        30.13F WCI  21
6HR MIN TEMP:  24; 6HR MAX TEMP:  28;

GROSSE ILE     CLOUDY    32  28  88 NE8       30.11F WCI  24
6HR MIN TEMP:  27; 6HR MAX TEMP:  32;

HILLSDALE      CLOUDY    30  30 100 E6        30.06F FOG     WCI  24
HOWELL         CLOUDY    30  28  94 E9        30.09F FOG     WCI  21
6HR MIN TEMP:  25; 6HR MAX TEMP:  30;


CITY           SKY/WX    TMP DP  RH WIND       PRES   REMARKS
JACKSON        CLOUDY    32  28  85 E8        30.08F FOG     WCI  25
6HR MIN TEMP:  26; 6HR MAX TEMP:  32;

LAMBERTVILLE   CLOUDY    33  31  92 E6        30.11F FOG     WCI  28
6HR MIN TEMP:  27; 6HR MAX TEMP:  33;

LANSING        CLOUDY    29  27  92 E9        30.10F FOG     WCI  20
6HR MIN TEMP:  22; 6HR MAX TEMP:  29;

LAPEER         CLOUDY    27  21  79 E5        30.14F WCI  22
6HR MIN TEMP:  25; 6HR MAX TEMP:  27;

MASON          CLOUDY    31  27  82 SE8       30.09F FOG     WCI  24
6HR MIN TEMP:  24; 6HR MAX TEMP:  31;

MONROE         CLOUDY    34  30  85 E13       30.11F WCI  25
6HR MIN TEMP:  27; 6HR MAX TEMP:  34;

MT. CLEMENS    CLOUDY    29  28  96 E9        30.13F FOG     WCI  20
6HR MIN TEMP:  25; 6HR MAX TEMP:  29;

PONTIAC        CLOUDY    27  24  89 E9        30.11F WCI  18
6HR MIN TEMP:  24; 6HR MAX TEMP:  27;

PORT HOPE        N/A     27  18  69 SE13      30.17F WCI  16
6HR MIN TEMP:  25; 6HR MAX TEMP:  27;

PORT HURON     CLOUDY    25  18  74 E6        30.18F WCI  18
TRI CITIES     CLOUDY    27  22  81 E7        30.16F WCI  19
6HR MIN TEMP:  24; 6HR MAX TEMP:  27;

MIDLAND        CLOUDY    27  21  78 E7        30.15F WCI  20
6HR MIN TEMP:  23; 6HR MAX TEMP:  27;

TROY           CLOUDY    30  26  86 E7        30.15F WCI  23
SAGINAW HB     CLOUDY    28  23  80 E5        30.15F WCI  23
$$
MIZ043>046-050>051-056>058-064>065-071>073-077>080-171900-
SOUTHWEST LOWER MICHIGAN

CITY           SKY/WX    TMP DP  RH WIND       PRES   REMARKS
BATTLE CREEK   CLOUDY    32  29  88 SE9       30.07F FOG     WCI  24
6HR MIN TEMP:  27; 6HR MAX TEMP:  32;

BENTON HARBOR  CLOUDY    34  27  75 SE7       30.05F WCI  28
6HR MIN TEMP:  26; 6HR MAX TEMP:  34;

BIG RAPIDS     CLOUDY    25  22  89 SE9       30.09F WCI  15
6HR MIN TEMP:  21; 6HR MAX TEMP:  25;

COLDWATER      CLOUDY    31  29  94 SE8       30.08F FOG     WCI  23
6HR MIN TEMP:  27; 6HR MAX TEMP:  31;

HOLLAND        CLOUDY    28  25  88 E9        30.07F FOG     WCI  19
6HR MIN TEMP:  23; 6HR MAX TEMP:  28;

GRAND RAPIDS   CLOUDY    27  25  92 E12       30.07F FOG     WCI  17
6HR MIN TEMP:  22; 6HR MAX TEMP:  27;

IONIA          CLOUDY    28  26  89 E8        30.08F FOG     WCI  20
6HR MIN TEMP:  22; 6HR MAX TEMP:  28;

KALAMAZOO      CLOUDY    31  26  82 SE7       30.08F HAZE    WCI  24
6HR MIN TEMP:  27; 6HR MAX TEMP:  31;

LUDINGTON      CLOUDY    28  24  85 SE10      30.07F WCI  19
6HR MIN TEMP:  23; 6HR MAX TEMP:  28;

MARSHALL       CLOUDY    31  30  96 SE7       30.08F FOG     WCI  24
6HR MIN TEMP:  26; 6HR MAX TEMP:  31;

MOUNT PLEASANT CLOUDY    28  22  77 E9        30.12F WCI  19
6HR MIN TEMP:  22; 6HR MAX TEMP:  28;

MUSKEGON       CLOUDY    27  23  85 E13       30.07F FOG     WCI  16
6HR MIN TEMP:  23; 6HR MAX TEMP:  28;

SOUTH HAVEN    CLOUDY    32  28  85 E7        30.05F FOG     WCI  26
$$
MIZ016>042-171900-
NORTHERN LOWER MICHIGAN

CITY           SKY/WX    TMP DP  RH WIND       PRES   REMARKS
ALPENA         CLOUDY    25  23  92 CALM      30.18F
6HR MIN TEMP:  18; 6HR MAX TEMP:  25; 6HR PCP: TRACE;

BEAVER ISLAND  CLOUDY    27  23  85 SE7       30.14F WCI  20
6HR MIN TEMP:  19; 6HR MAX TEMP:  28;

BELLAIRE       CLOUDY    26  24  89 SE9       30.14F WCI  17
6HR MIN TEMP:  18; 6HR MAX TEMP:  26;

CADILLAC       CLOUDY    23  23  99 SE8       30.07F FOG     WCI  14
CHARLEVOIX     CLOUDY    25  21  84 E5        30.17F WCI  20
6HR MIN TEMP:  13; 6HR MAX TEMP:  25;

FRANKFORT      CLOUDY    28  22  77 SE5       30.10F WCI  23
GAYLORD        CLOUDY    22  19  89 SE9       30.10F WCI  12
6HR MIN TEMP:  13; 6HR MAX TEMP:  22;

GRAYLING       CLOUDY    23  21  91 E7        30.12F WCI  15
6HR MIN TEMP:  15; 6HR MAX TEMP:  23;

HARBOR SPRINGS CLOUDY    21  17  84 E7        30.15F WCI  13
HOUGHTON LAKE  CLOUDY    24  20  84 SE10      30.12F WCI  14
6HR MIN TEMP:  17; 6HR MAX TEMP:  24;

OSCODA         CLOUDY    27  21  76 SE3       30.17F
6HR MIN TEMP:  19; 6HR MAX TEMP:  28;

PELLSTON       CLOUDY    17  13  84 CALM      30.17F
6HR MIN TEMP:  -7; 6HR MAX TEMP:  17;

ROGERS CITY    CLOUDY    24  19  81 SE3       30.19F
TRAVERSE CITY  CLOUDY    27  21  78 E7        30.12F WCI  19
6HR MIN TEMP:  19; 6HR MAX TEMP:  27;

$$
MIZ007>008-015-171900-
EASTERN UPPER MICHIGAN

CITY           SKY/WX    TMP DP  RH WIND       PRES   REMARKS
KINROSS        CLOUDY    11   6  81 E5        30.19F WCI   3
6HR MIN TEMP:   2; 6HR MAX TEMP:  11;

MACKINAC ISLAN CLOUDY    24  19  78 SE5       30.17F WCI  18
6HR MIN TEMP:  15; 6HR MAX TEMP:  24;

NEWBERRY       CLOUDY    19  18  97 SE5       30.15F WCI  12
6HR MIN TEMP:   4; 6HR MAX TEMP:  19;

S. S. MARIE    CLOUDY     8   3  80 E5        30.19F WCI   0
6HR MIN TEMP:   1; 6HR MAX TEMP:   8;

MUNISING         N/A     24  20  84 S6        30.12F WCI  17
6HR MIN TEMP:  12; 6HR MAX TEMP:  24;

$$
MIZ004>006-011>014-085-171900-
CENTRAL UPPER MICHIGAN

CITY           SKY/WX    TMP DP  RH WIND       PRES   REMARKS
MANISTIQUE     CLOUDY    26  21  82 SE7       30.13F WCI  18
6HR MIN TEMP:  12; 6HR MAX TEMP:  26;

ESCANABA       CLOUDY    30  24  78 SE9       30.12F WCI  22
6HR MIN TEMP:  18; 6HR MAX TEMP:  30;

MENOMINEE      CLOUDY    31  27  85 SE8       30.10F WCI  23
6HR MIN TEMP:  23; 6HR MAX TEMP:  31;

SAWYER-GWINN   CLOUDY    21  21 100 S8        30.09F WCI  12
$$
MIZ001>003-009>011-084-171900-
WESTERN UPPER MICHIGAN

CITY           SKY/WX    TMP DP  RH WIND       PRES   REMARKS
IRON MOUNTAIN  CLOUDY    24  20  84 S3        30.06F
6HR MIN TEMP:  17; 6HR MAX TEMP:  24;

HOUGHTON       CLOUDY    24  20  84 S9        30.05F WCI  14
6HR MIN TEMP:  20; 6HR MAX TEMP:  24;

COPPER HARBOR    N/A     27  21  78 SW3       30.08F
6HR MIN TEMP:  25; 6HR MAX TEMP:  27;

IRONWOOD       CLOUDY    26  22  84 S10G16    30.04F WCI  16
6HR MIN TEMP:  22; 6HR MAX TEMP:  26;

$$

ABBREVIATIONS USED IN REMARKS
   TC - TEMPERATURE IN CELSIUS
  WCI - WIND CHILL INDEX
   HX - HEAT INDEX
  VSB - VISIBILITY




USA.gov is the U.S. government's official web portal to all federal, state and local government web resources and services.